User: anonymous   Login
Location: ???? ??????? ????
(31.2176°N, 31.6797°E)
Time: 12:55:00
(UTC+00:00)
Language:

Cosmos 44 Rocket - Orbit

View from above orbital plane
View from above orbital plane
View from above satellite
View from above satellite

Ground track
Ground track

The orbit data is extracted from the following two-line orbital elements,

1   877U 64053B   21019.16240057 -.00000062  00000-0  12591-4 0  9999
2   877  65.0782  58.5990 0079325 306.5971  52.7848 14.59414464992966
Epoch (UTC): 19 January 2021 03:53:51
Eccentricity: 0.0079325
inclination: 65.0782°
perigee height: 639 km
apogee height: 751 km
right ascension of ascending node: 58.5990°
argument of perigee: 306.5971°
revolutions per day: 14.59414464
mean anomaly at epoch: 52.7848°
orbit number at epoch: 99296

The dashed part of the orbit path shows where the satellite is in the earth's shadow,  

DLR